Regional Weather Roundup
Issued by NWS State College, PA

Home | Current Version | Previous Version | Text Only | Print | Product List | Glossary On
Versions: 1 2 3 4 5 6 7 8 9 10 11 12 13 14 15 16 17 18 19 20 21 22 23 24 25 26 27 28 29 30 31 32 33 34 35 36 37 38 39 40 41 42 43 44 45 46 47 48 49 50
000
ASUS41 KCTP 260910
RWRCTP

REGIONAL WEATHER ROUNDUP
NATIONAL WEATHER SERVICE STATE COLLEGE PA
500 AM EDT SUN OCT 26 2014

Note: "fair" indicates few or no clouds below 12,000 feet with no
significant weather and/or obstructions to visibility.

* = STATION THAT DOES NOT REPORT PRECIPITATION /E.G. RAIN...SNOW...ETC/
    THUNDER OR FOG.

PAZ002>004-007>009-013>016-020>023-029>032-261000-
WESTERN PENNSYLVANIA

CITY           SKY/WX    TMP DP  RH WIND       PRES   REMARKS
ERIE           CLEAR     53  36  52 NW12      29.77R
MEADVILLE      CLEAR     45  36  70 W5        29.77R
FRANKLIN*      CLEAR     45  34  65 W8        29.78S
NEW CASTLE       N/A     46  34  63 SW7       29.81R
BEAVER COUNTY  NOT AVBL
BUTLER*        CLEAR     46  30  53 W5        29.82R
PITTSBURGH INT CLEAR     48  32  53 W8        29.81R
PITTSBURGH     CLEAR     49  29  46 W12       29.80R
INDIANA*       CLEAR     46  34  61 W7        29.81R
LATROBE        CLEAR     43  34  70 SW8       29.81R
WASHINGTON CO* CLEAR     41  30  65 W7        29.85R
$$

PAZ004>006-010>012-017>019-024>028-033>037-041-042-045-046-049>053-261000-
CENTRAL PENNSYLVANIA

CITY           SKY/WX    TMP DP  RH WIND       PRES   REMARKS
BRADFORD       CLEAR     43  36  76 W9        29.71R
DUBOIS         CLEAR     44  35  70 W12       29.73S
CLEARFIELD     CLEAR     47  34  60 SW5       29.73R
JOHNSTOWN      CLEAR     47  29  49 W12G24    29.76R
ALTOONA        CLEAR     50  33  52 NW9       29.75R
STATE COLLEGE  CLEAR     50  33  51 W9        29.72R
WILLIAMSPORT   PTCLDY    54  33  45 NW10      29.65S
SELINSGROVE    CLEAR     55  33  43 NW6       29.69R
FT INDIANTOWN  CLEAR     58  35  41 W9G30     29.67R
CAPITAL CITY   CLEAR     59  32  36 NW14G24   29.69R
HARRISBURG     CLEAR     57  33  40 NW21G33   29.68R
YORK           CLEAR     56  34  43 W8        29.69R
$$

PAZ038>040-043-044-047-048-054-055-060>062-067>071-261000-
EASTERN PENNSYLVANIA

CITY           SKY/WX    TMP DP  RH WIND       PRES   REMARKS
SCRANTON       MOCLDY    53  36  52 NW10G21   29.64R
MOUNT POCONO   CLEAR     47  35  63 NW12G18   29.61R
ALLENTOWN      CLOUDY    58  36  43 NW14G29   29.63R
QUAKERTOWN*    SUNNY     57  41  54 W6        29.62S
READING        LGT RAIN  59  36  42 W12       29.63R
LANCASTER      CLEAR     58  34  40 NW20G25   29.67R
COATESVILLE    SUNNY     55  41  58 NW12      29.66R
POTTSTOWN      CLEAR     58  38  47 VRB7      29.64R
BLUE BELL      CLEAR     61  43  51 W5        29.61R
DOYLESTOWN     CLEAR     57  41  55 W8        29.60R
WILLOW GROVE   NOT AVBL
NORTH PHILA    CLEAR     61  41  47 NW10      29.63R
PHILADELPHIA   PTCLDY    60  45  57 W10       29.63R
$$



USA.gov is the U.S. government's official web portal to all federal, state and local government web resources and services.